Location: Ar Ranvel
(48.3000°N, 4.8833°W)
Time: 22:09:47
(UTC+00:00)

BlueWalker 3 - Pass Details

Date: 09 December 2022
Orbit: 499 x 517 km, 53.2° (Epoch: 04 February)

Event Time Altitude Azimuth Distance (km) Brightness Sun altitude
Rises 18:46:47 0° 295° (WNW) 2,627 6.5 -22.5°
Reaches altitude 10° 18:49:06 10° 287° (WNW) 1,734 5.5 -22.9°
Maximum altitude 18:52:44 38° 219° (SW) 793 3.2 -23.5°
Enters shadow 18:53:42 32° 185° (S) 889 3.2 -23.6°
